Location: Newark
(44.3248°N, 23.7839°E)
Time: 23:41:09
(UTC+00:00)

PCSat - Pass Details

Date: 16 April 2024
Orbit: 783 x 792 km, 67.1° (Epoch: 21 May)

Event Time Altitude Azimuth Distance (km) Brightness Sun altitude
Rises 20:35:30 0° 257° (WSW) 3,275 13.0 -29.8°
Reaches altitude 10° 20:38:34 10° 275° (W) 2,352 12.4 -30.1°
Maximum altitude 20:42:26 20° 321° (NW) 1,780 12.1 -30.5°
Drops below altitude 10° 20:46:20 10° 7° (N) 2,364 12.6 -30.8°
Sets 20:49:26 0° 24° (NNE) 3,298 13.3 -31.1°
